Location: ?????
(31.8092°N, 35.2590°E)
Time: 20:05:01
(UTC+00:00)

Cosmos 1025 Rocket - Pass Details

Date: 20 June 2021
Orbit: 593 x 619 km, 82.5° (Epoch: 31 July)

Event Time Altitude Azimuth Distance (km) Brightness Sun altitude
Exits shadow 18:46:50 46° 184° (S) 834 3.4 -20.9°
Maximum altitude 18:48:08 89° 93° (E) 620 2.9 -21.1°
Drops below altitude 10° 18:52:31 10° 6° (N) 1,975 6.2 -21.7°
Sets 18:54:44 0° 7° (N) 2,879 7.1 -22.0°
